Other Public Products
Issued by NWS Grand Forks, ND

Home | Current Version | Previous Version | Text Only | Print | Product List | Glossary On
Versions: 1 2 3 4 5 6 7 8 9 10 11 12 13 14 15 16 17 18 19 20 21 22 23 24 25 26 27 28 29 30 31 32 33 34 35 36 37 38 39 40 41 42 43 44 45 46 47 48 49 50
000
FPUS83 KFGF 031731
OPUFGF
PRAIRIE TO PINES WEATHER ROUNDUP
NATIONAL WEATHER SERVICE EASTERN NORTH DAKOTA/GRAND FORKS ND
1200 PM CDT WED JUN 03 2015

 **SATELLITE DATA USED TO AUGMENT SKY COVER AT AUTOMATED STATIONS**
 *****  WEATHER ACROSS EASTERN NORTH DAKOTA  *****

CITY           SKY/WX    TMP DP  RH WIND       PRES   REMARKS
GRAND FORKS    CLOUDY    55  48  77 N15       29.85R
GRAND FORKS AF CLOUDY    55  47  73 N16       29.87R
GRAND CITY NWS   N/A     54 N/A N/A VRB15       N/A
BUXTON           N/A     55  54  95 NW12        N/A
DEVILS LAKE    CLOUDY    55  43  62 N15G21    29.93R
FARGO          CLOUDY    58  53  84 NW16      29.83R
WAHPETON ARPT  CLOUDY    59  54  82 NW13      29.84S
$$

 *****  WEATHER ACROSS CENTRAL AND WESTERN NORTH DAKOTA  *****

CITY           SKY/WX    TMP DP  RH WIND       PRES   REMARKS
JAMESTOWN      CLOUDY    54  47  77 N16G23    29.90R
BISMARCK       CLOUDY    58  44  60 N14       29.99S
MINOT          CLOUDY    57  39  51 N17       30.02R
MINOT AFB      CLOUDY    58  44  59 NE13      30.01S
GARRISON         N/A     60  41  49 N6        30.01R
WILLISTON      CLOUDY    62  43  49 MISG      30.04S
DICKINSON      MOSUNNY   59  44  57 N9        30.03R
HETTINGER      MOSUNNY   59  49  69 N9        30.03S
$$

 *****  OTHER OBSERVATIONS NORTHEAST NORTH DAKOTA  *****

CITY           SKY/WX    TMP DP  RH WIND       PRES   REMARKS
WALHALLA       FAIR      59  48  67 MISG      29.93S
LANGDON        CLOUDY    59  45  58 N20       29.94R
CAVALIER       LGT RAIN  57  46  67 N14       29.91R
GRAFTON        CLOUDY    55  50  82 N15       29.89R
CANDO          CLOUDY    55  43  62 N20       29.97R
FORT TOTTEN      N/A     54  44  69 N5        29.95
ROLLA          CLOUDY    54  43  66 N18G24    30.00R
RUGBY          NOT AVBL
 ***** THE ABOVE OBSERVATIONS ARE NON NWS ARE NOT QUALITY
        CONTROLLED AND MAY MIS-REPORT RAIN FOR SNOW...
$$

 *****  OTHER OBSERVATIONS SOUTHEAST NORTH DAKOTA *****

CITY           SKY/WX    TMP DP  RH WIND       PRES   REMARKS
COOPERSTOWN    NOT AVBL
VALLEY CITY    CLOUDY    54  54 100 N15       29.89R
OAKES            N/A     57  57 100 NW14      29.89R
GWINNER        NOT AVBL
SHEYENNE NWR     N/A     58  55  89 NW8       29.95
BUFFALO        NOT AVBL
WYNDMERE         N/A     59  57  94 NW10        N/A
 ***** THE ABOVE OBSERVATIONS ARE NON NWS ARE NOT QUALITY
       CONTROLLED AND MAY MIS-REPORT RAIN FOR SNOW...
$$

  *****  WEATHER ACROSS NORTHERN MINNESOTA  *****

CITY           SKY/WX    TMP DP  RH WIND       PRES   REMARKS
FLAG ISLAND    CLOUDY    63  55  77 NE12      29.88R
WARROAD        CLOUDY    61  57  88 NE13      29.87S
ROSEAU         CLOUDY    61  55  82 NE17      29.86S
HALLOCK        CLOUDY    61  55  82 N5        29.88R
THF RVR FALLS  CLOUDY    64  59  82 NE12      29.85R
HALSTAD          N/A     57  54  89 NW17        N/A
FOSSTON        CLOUDY    66  64  94 CALM      29.83R
BAUDETTE       CLOUDY    64  58  80 NE9       29.85R
WASKISH        CLOUDY    68  63  83 E5        29.84R
CROOKSTON      LGT RAIN  57  57 100 N14G20    29.85R
$$
  *****  WEATHER ACROSS CENTRAL AND WEST MINNESOTA  *****

CITY           SKY/WX    TMP DP  RH WIND       PRES   REMARKS
BEMIDJI        CLOUDY    62  60  94 SE5       29.82S
PARK RAPIDS    CLOUDY    67  60  78 S9        29.80F
WADENA         CLOUDY    64  61  88 S8        29.80F
DETROIT LAKES  FOG       63  61  94 CALM      29.82S VSB 1
MOORHEAD       CLOUDY    57  54  88 NW14      29.84R
FERGUS FALLS   FOG       59  59 100 NW13      29.83S VSB 3/4
ELBOW LAKE     RAIN      61  61  99 NW7       29.83R
MORRIS MN      DRIZZLE   63  63 100 NW7       29.84R
STAPLES        CLOUDY    64  59  82 SW6       29.81S
WHEATON        CLOUDY    61  57  88 NW10      29.85S
$$
  *****  WEATHER ELSEWHERE ACROSS MINNESOTA  *****

CITY           SKY/WX    TMP DP  RH WIND       PRES   REMARKS
DULUTH         CLOUDY    61  53  75 E8        29.88R
INTRNTL FALLS  CLOUDY    65  59  81 N8        29.86R
ELY            CLOUDY    64  55  72 S6        29.89S
CLOQUET        CLOUDY    59  54  82 E3        29.87S
BRAINERD       CLOUDY    66  59  78 S6        29.80F
HIBBING        CLOUDY    62  57  83 SE8       29.87R
ALEXANDRIA     CLOUDY    65  60  84 SW9       29.85R
SAINT CLOUD    TSTM      61  60  97 SW9       29.86F VSB 1
MINNEAPOLIS    TSTM      64  61  90 SW7       29.89R VSB 3/4
$$

  *****  WEATHER ACROSS SOUTH DAKOTA  *****

CITY           SKY/WX    TMP DP  RH WIND       PRES   REMARKS
SIOUX FALLS    CLOUDY    69  64  84 NW10      29.87R
BROOKINGS      CLOUDY    70  59  68 CALM      29.86R
WATERTOWN      CLOUDY    66  62  87 N9        29.85R
HURON          SUNNY     73  61  65 NW15      29.86R
SISSETON         N/A     63  61  93 N17       29.84R
ABERDEEN       CLOUDY    65  56  72 N16       29.89R
MITCHELL       SUNNY     74  59  59 NW10      29.87R
PIERRE         CLOUDY    61  54  77 NW17      29.95R
MOBRIDGE       CLOUDY    63  50  62 NW16G22   29.93R
RAPID CITY     CLOUDY    58  51  78 N12       30.04S
$$

  *****  SOME WEATHER IN NEARBY STATES *****

CITY           SKY/WX    TMP DP  RH WIND       PRES   REMARKS
GLASGOW MT     PTSUNNY   62  49  62 S15       30.01S
GREAT FALLS MT SUNNY     62  41  46 W5        29.97S
CHEYENNE WY    CLOUDY    62  52  69 SW10      30.10F
SCOTTSBLUFF NE SUNNY     71  52  50 VRB3      30.02F
OMAHA NE       CLOUDY    69  63  81 W6        29.90R
DES MOINES IA  CLOUDY    72  64  76 SE12      29.87R
DAVENPORT IA   PTSUNNY   75  56  51 S16       29.99F
CHICAGO IL     MOSUNNY   71  54  54 S7        30.04F
EAU CLAIRE WI  CLOUDY    69  55  60 S17       29.88F
LA CROSSE WI   PTSUNNY   73  56  54 S14       29.91F
$$

  *****  SOME NATIONAL WEATHER *****

CITY           SKY/WX    TMP DP  RH WIND       PRES   REMARKS
LA GUARDIA NY  PTSUNNY   66  49  54 NE10      30.22S
RALEIGH NC     DRIZZLE   66  63  90 N7        30.09F FOG
ATLANTA GA     PTSUNNY   79  66  65 SE9       29.99F
NEW ORLEANS LA MOSUNNY   85  67  54 N8        29.94F
OKLAHOMA CITY  MOSUNNY   84  66  54 S20G25    29.90F
ALBUQUERQUE NM SUNNY     79  25  13 VRB5      30.08F
SALT LAKE CITY PTSUNNY   73  48  41 N5        29.88F
LOS ANGELES CA CLOUDY    62  57  83 SE9       29.97R
BOISE ID       PTSUNNY   63  47  55 W10       29.97F
SEATTLE WA     CLOUDY    57  48  72 SW6       30.08S
$$

*** WEATHER ACROSS MANITOBA...SASKATCHEWAN AND ONTARIO ***
                ***ONTARIO***

CITY           SKY/WX    TMP DP  RH WIND       PRES   REMARKS
GERALDTON      CLOUDY    55  52  88 S9        29.93S
THUNDER BAY    PTSUNNY   63  46  55 E8        29.91S
SIOUX LOOKOUT  PTSUNNY   63  55  77 NE6       29.91S
TORONTO        MOSUNNY   64  43  45 SE9G18    30.21F
BIG TROUT LK   MOSUNNY   59  39  47 W14       29.92R
PICKLE LAKE    PTSUNNY   64  36  34 N7        29.92F
DRYDEN         CLOUDY    59  55  88 NE10      29.90S
KENORA         PTSUNNY   61  54  77 NE10G17   29.92R
$$
                *** MANITOBA***

CITY           SKY/WX    TMP DP  RH WIND       PRES   REMARKS
BRANDON        CLOUDY    59  37  44 E12       30.03R
DAUPHIN        SUNNY     63  28  27 NE9G17    30.05R
ISLAND LAKE    PTSUNNY   57  39  51 NW8       30.01R
PILOT MOUND      N/A     55  41  58 N14         N/A
THE PAS        MOSUNNY   61  28  29 N6        30.09S
THOMPSON       MOSUNNY   55  39  54 N7        30.06R
WINNIPEG       PTSUNNY   61  41  48 N22       29.95R
LYNN LAKE      SUNNY     52  32  46 N6        30.11R
CHURCHILL      CLOUDY    36  34  93 NW14G20   30.02R
GILLAM         PTSUNNY   50  39  66 NW10      30.03R
$$
                ***SASKATCHEWAN***

CITY           SKY/WX    TMP DP  RH WIND       PRES   REMARKS
ESTEVAN        MOSUNNY   59  37  44 VRB2      30.06R
KINDERSLEY     CLOUDY    61  30  31 SE12      30.00R
LLOYDMINSTER   PTSUNNY   64  34  32 SE12G20   30.01S
PRINCE ALBERT  MOSUNNY   66  28  24 SE9       30.06S
REGINA         PTSUNNY   64  37  36 SE10      30.04S


USA.gov is the U.S. government's official web portal to all federal, state and local government web resources and services.